User: anonymous   Login
Location: Caltech
(34.1382°N, 118.1253°W)
Time: 01:08:28
(UTC-08:00)
Language:

NOSS 3-2 (A) - Orbit

View from above orbital plane
View from above orbital plane
View from above satellite
View from above satellite

Ground track
Ground track

The orbit data is extracted from the following two-line orbital elements,

1 28095U 03054A   17326.70795478 0.00000000  00000-0  00000-0 0    05
2 28095  63.4234 267.4805 0320000 358.2126   1.7874 13.41356186    07
Epoch (UTC): 22 November 2017 16:59:27
Eccentricity: 0.0320000
inclination: 63.4234°
perigee height: 865 km
apogee height: 1343 km
right ascension of ascending node: 267.4805°
argument of perigee: 358.2126°
revolutions per day: 13.41356186
mean anomaly at epoch: 1.7874°
orbit number at epoch: 0

The dashed part of the orbit path shows where the satellite is in the earth's shadow,  

DLR